953  
ASUS42 KFFC 271410  
RWRGA  
WEATHER ROUNDUP FOR GEORGIA  
NATIONAL WEATHER SERVICE PEACHTREE CITY GA  
900 AM EST WED JAN 27 2021  
 
NOTE: "FAIR" INDICATES FEW OR NO CLOUDS BELOW 12,000 FEET WITH NO  
SIGNIFICANT WEATHER AND/OR S TO VISIBILITY
.  
 
* = USE WITH CAUTION. THE STATIONS MARKED WITH AN ASTERISK MAY NOT  
REPORT WEATHER SUCH AS PRECIPITATION, FOG, OR THUNDER AND ARE NOT  
QUALITY CONTROLLED BY NWS.  
 
THE REMARK "TC" DENOTES TEMPERATURE READING IN DEGREES CELSIUS.  
 
GAZ001>058-271500-  
NORTH GEORGIA  
 
CITY SKY/WX TMP DP RH WIND PRES REMARKS
 
ATLANTA RAIN 51 49 92 E8 30.02F FOG  
ATHENS RAIN 52 48 86 N5 30.03R FOG  
CHAMBLEE LGT RAIN 50 49 96 CALM 30.01F  
PEACHTREE CITY RAIN 51 50 96 VRB5 30.04R FOG  
ROME CLOUDY 52 45 77 NW6 30.02R  
WEST ATLANTA LGT RAIN 50 49 96 CALM 30.00F FOG  
GAINESVILLE CLOUDY 50 47 89 W6 30.04R  
CARTERSVILLE LGT RAIN 52 50 93 CALM 30.02S  
 
 
CITY SKY/WX TMP DP RH WIND PRES REMARKS
 
DALTON* CLOUDY 50 41 71 NW6 30.05R  
LAWRENCEVILLE* LGT RAIN N/A N/A N/A CALM 30.02S  
KENNESAW* LGT RAIN 50 50 100 CALM 30.01F FOG  
CANTON* CLOUDY 50 50 100 CALM 30.02F FOG  
BLAIRSVILLE* PTSUNNY 45 44 97 CALM 30.01F  

 
 
GAZ059>098-102>109-271500-  
CENTRAL GEORGIA  
 
CITY SKY/WX TMP DP RH WIND PRES REMARKS
 
AUGUSTA-BUSH CLOUDY 58 51 78 CALM 30.03R  
AUGUSTA-DANIEL CLOUDY 56 49 77 N7 30.02R  
COLUMBUS CLOUDY 56 47 71 N3 30.04R  
MACON LGT RAIN 54 51 90 E6 30.04S  
 
 
CITY SKY/WX TMP DP RH WIND PRES REMARKS
 
LAGRANGE* LGT RAIN 51 49 91 CALM 30.04R  
SYLVANIA* HVY RAIN 55 51 87 E6 30.04R  
MILLEDGEVILLE* CLOUDY 55 52 88 CALM 30.07  

 
 
GAZ099>101-110>166-271500-  
SOUTH GEORGIA  
 
CITY SKY/WX TMP DP RH WIND PRES REMARKS
 
SAVANNAH LGT RAIN 58 52 80 NE6 30.02R  
VALDOSTA FOG 68 66 93 SW6 30.00R VSB 1  
ALMA CLOUDY 58 57 97 VRB3 30.00R FOG  
ST SIMONS CLOUDY 69 67 93 SW8 30.01R  
ALBANY CLOUDY 58 56 93 NE16 30.02R  
BRUNSWICK CLOUDY 69 67 93 S10 30.00S  
 
 
CITY SKY/WX TMP DP RH WIND PRES REMARKS
 
BAINBRIDGE* CLOUDY 71 69 95 SW7 29.97R  
MOULTRIE* PTSUNNY 68 68 100 SW6 30.00R  
VIDALIA* LGT RAIN 54 50 87 NE5 30.06R  
WAYCROSS* CLOUDY 69 64 83 SW9 30.00R  
DOUGLAS* CLOUDY 58 58 98 N8 30.03R  

 
 
 
CLICK HERE TO GO TO PREVIOUS BULLETINS.

The Nexlab GA Page Main Text Page